Main page
Satellite images Climate Cyclones Lightning AirportsFAQ Languages Contact Newsletter About
Weather : Europe Africa North America South America Asia Australia-Oceania Others

1216, Hong Kong, Hong Kong International Airport

latitude: , longitude: China, elevation: 22-19N m


METAR: VHHH 211730Z 12006KT 090V150 9999 FEW026 29/24 Q1009 NOSIG